Group_ship,Cruise,JD_GMT,Date_DDMMYYYY,TIME_HH:MM:SS,Lat_dec_degree,Long_dec_degree,xCO2eq_ppm,xCO2a_ppm,Pres_Equi_hPa,Pres_sealevel_hPa,EqTemp_C,SST(TSG)_C,Sal(TSG)_Permil,Water_flow_l/min,Gasflow_IR_ml/min,Temp_IR_C,Pres_IR_hPa,Ship_heading_true_degree,Ship_speed_knot,Wind_dir_rel_degree,Wind_speed_rel_m/s,fCO2W@SST_uatm,Qcflag_water,fCO2a_uatm,Qcflag_air,dfCO2_uatm,Fluoro_ug/l,Wind_speed_true_m/s,Wind_dir_true_degree,Air_temp_C,Oxygen
AOML_Explorer,Ex0729N,196.975,15072007,23:24:13,40.261,-73.631,420.75,-9.00,1008.54,1007.80,22.45,22.35,31.283,1.886,86.017,32.329,1008.544,143.000,17.400,46.000,24.706,404.80,2,-9.00,9,-9.00,0.39,20.27,213.54,23.46,268.89
AOML_Explorer,Ex0729N,196.977,15072007,23:26:46,40.253,-73.619,422.83,-9.00,1009.01,1007.50,22.34,22.55,31.206,1.882,85.986,32.330,1009.008,0.000,0.000,48.000,23.676,412.02,2,-9.00,9,-9.00,0.36,19.59,217.19,23.48,266.14
AOML_Explorer,Ex0729N,196.979,15072007,23:29:19,40.253,-73.619,423.47,-9.00,1008.74,1007.60,22.45,22.59,31.237,1.889,86.175,32.315,1008.738,0.000,0.000,47.000,24.191,411.38,2,-9.00,9,-9.00,0.37,19.86,215.59,23.47,265.06
AOML_Explorer,Ex0729N,196.980,15072007,23:31:52,40.253,-73.619,424.20,-9.00,1008.76,1007.80,22.61,22.58,31.263,1.891,85.944,32.310,1008.764,0.000,0.000,42.000,24.191,409.21,2,-9.00,9,-9.00,0.39,19.09,209.89,23.38,265.24
AOML_Explorer,Ex0729N,196.982,15072007,23:34:25,40.221,-73.592,428.12,-9.00,1008.82,1007.40,22.64,22.55,31.290,1.882,85.889,32.308,1008.816,143.400,17.700,46.000,24.191,411.96,2,-9.00,9,-9.00,0.39,19.63,214.44,23.36,265.76
AOML_Explorer,Ex0729N,196.984,15072007,23:36:58,40.211,-73.583,431.63,-9.00,1009.03,1007.80,22.63,22.50,31.334,1.834,85.936,32.306,1009.030,144.000,18.000,49.000,24.191,414.88,2,-9.00,9,-9.00,0.40,20.09,218.35,23.4,266.17
AOML_Explorer,Ex0729N,196.986,15072007,23:39:31,40.201,-73.573,433.55,-9.00,1008.92,1008.00,22.62,22.48,31.367,1.924,85.378,32.309,1008.918,146.700,17.700,45.000,24.191,416.41,2,-9.00,9,-9.00,0.40,19.48,216.95,23.47,266.24
AOML_Explorer,Ex0729N,196.988,15072007,23:42:04,40.190,-73.565,437.87,-9.00,1008.77,1007.70,22.58,22.51,31.428,1.802,85.189,32.311,1008.767,148.800,17.700,41.000,24.706,421.60,2,-9.00,9,-9.00,0.40,19.28,213.40,23.56,266.68
AOML_Explorer,Ex0729N,196.989,15072007,23:44:37,40.179,-73.556,441.07,-9.00,1009.13,1008.20,22.57,22.50,31.456,1.874,84.770,32.315,1009.125,149.500,18.600,43.000,23.162,424.96,2,-9.00,9,-9.00,0.41,17.89,218.54,23.55,266.71
AOML_Explorer,Ex0729N,196.991,15072007,23:47:10,40.167,-73.547,443.18,-9.00,1009.04,1008.30,22.59,22.45,31.469,1.908,85.414,32.319,1009.042,150.200,19.800,40.000,23.162,425.66,2,-9.00,9,-9.00,0.40,17.16,216.30,23.53,266.88
AOML_Explorer,Ex0729N,196.993,15072007,23:49:43,40.155,-73.538,442.70,-9.00,1008.58,1008.10,22.58,22.47,31.466,1.867,88.462,32.323,1008.578,146.200,19.900,44.000,24.706,425.53,2,-9.00,9,-9.00,0.40,19.10,215.28,23.56,266.83
AOML_Explorer,Ex0729N,196.995,15072007,23:52:16,40.144,-73.527,445.31,-9.00,1008.77,1008.10,22.57,22.31,31.491,1.774,86.965,32.328,1008.770,139.500,20.300,50.000,23.162,425.65,2,-9.00,9,-9.00,0.42,18.72,218.22,23.6,266.98
AOML_Explorer,Ex0729N,196.996,15072007,23:54:49,40.133,-73.514,447.33,-9.00,1008.37,1007.80,22.55,22.39,31.454,1.831,86.172,32.334,1008.373,137.300,20.400,50.000,23.676,429.08,2,-9.00,9,-9.00,0.44,19.24,216.17,23.61,267.35
AOML_Explorer,Ex0729N,196.998,15072007,23:57:22,40.122,-73.502,446.58,-9.00,1008.43,1008.00,22.46,22.49,31.427,1.857,86.354,32.339,1008.434,137.500,20.400,45.000,24.191,431.76,2,-9.00,9,-9.00,0.43,18.80,209.78,23.64,267.71
AOML_Explorer,Ex0729N,197.000,15072007,23:59:55,40.111,-73.489,444.29,-9.00,1008.62,1007.50,22.50,22.62,31.426,1.849,85.926,32.346,1008.624,137.100,20.400,51.000,22.647,431.32,2,-9.00,9,-9.00,0.40,18.50,218.62,23.64,266.59
AOML_Explorer,Ex0729N,197.015,16072007,0:21:40,40.022,-73.376,422.38,-9.00,1009.01,1008.00,22.82,22.70,31.338,1.845,85.862,32.465,1009.013,134.000,20.800,50.000,22.132,406.03,2,-9.00,9,-9.00,0.37,17.78,215.48,23.76,263.34
AOML_Explorer,Ex0729N,197.017,16072007,0:24:13,40.011,-73.362,418.77,-9.00,1009.08,1008.10,22.78,22.70,31.366,1.790,85.722,32.469,1009.082,131.300,20.800,51.000,21.617,403.19,2,-9.00,9,-9.00,0.40,17.48,214.35,23.78,263.65
AOML_Explorer,Ex0729N,197.019,16072007,0:26:46,40.002,-73.348,416.69,-9.00,1009.08,1008.20,22.76,22.69,31.391,1.822,85.697,32.473,1009.078,132.300,20.900,51.000,21.617,401.34,2,-9.00,9,-9.00,0.39,17.48,215.35,23.73,263.79
AOML_Explorer,Ex0729N,197.020,16072007,0:29:19,39.992,-73.333,415.78,-9.00,1009.07,1008.30,22.76,22.75,31.386,1.880,85.246,32.478,1009.070,131.900,20.900,47.000,21.103,401.50,2,-9.00,9,-9.00,0.40,16.33,211.88,23.75,264.32
AOML_Explorer,Ex0729N,197.022,16072007,0:31:52,39.982,-73.319,415.83,-9.00,1008.98,1008.20,22.74,22.92,31.388,1.885,85.107,32.481,1008.982,132.000,20.900,50.000,21.103,404.43,2,-9.00,9,-9.00,0.41,16.92,215.27,23.76,264.42
AOML_Explorer,Ex0729N,197.024,16072007,0:34:25,39.972,-73.305,415.41,-9.00,1009.13,1008.40,22.81,23.02,31.416,1.871,85.156,32.482,1009.132,131.700,20.800,50.000,21.103,404.62,2,-9.00,9,-9.00,0.39,16.90,214.94,23.77,264.00
AOML_Explorer,Ex0729N,197.026,16072007,0:36:58,39.962,-73.291,414.55,-9.00,1009.34,1008.30,22.96,23.07,31.416,1.862,85.304,32.484,1009.345,131.900,20.800,48.000,22.132,402.18,2,-9.00,9,-9.00,0.36,17.45,211.12,23.77,263.40
AOML_Explorer,Ex0729N,197.027,16072007,0:39:31,39.952,-73.277,414.10,-9.00,1009.38,1008.30,23.04,23.07,31.403,1.852,85.027,32.482,1009.384,131.600,20.900,49.000,21.617,400.40,2,-9.00,9,-9.00,0.35,17.20,212.88,23.78,262.51
AOML_Explorer,Ex0729N,197.029,16072007,0:42:04,39.942,-73.262,413.46,-9.00,1009.38,1008.40,23.08,23.10,31.364,1.847,84.832,32.484,1009.382,131.800,20.800,44.000,22.132,399.58,2,-9.00,9,-9.00,0.33,16.78,206.84,23.78,262.06
AOML_Explorer,Ex0729N,197.031,16072007,0:44:37,39.932,-73.248,412.99,-9.00,1009.41,1008.50,23.09,23.22,31.203,1.834,84.783,32.480,1009.408,131.700,20.800,51.000,22.132,400.87,2,-9.00,9,-9.00,0.37,18.05,214.46,23.79,262.43
AOML_Explorer,Ex0729N,197.033,16072007,0:47:10,39.922,-73.234,411.07,-9.00,1009.61,1008.20,23.14,23.25,31.213,1.783,84.580,32.481,1009.609,131.600,20.900,51.000,22.132,398.79,2,-9.00,9,-9.00,0.34,18.10,214.59,23.83,262.30
AOML_Explorer,Ex0729N,197.035,16072007,0:49:43,39.913,-73.219,406.60,-9.00,1009.46,1008.70,23.23,23.20,31.139,1.865,86.571,32.475,1009.456,131.600,20.800,53.000,21.617,392.03,2,-9.00,9,-9.00,0.34,17.99,217.54,23.82,261.47
AOML_Explorer,Ex0729N,197.036,16072007,0:52:16,39.903,-73.205,406.26,-9.00,1009.61,1008.50,23.27,23.27,31.034,1.876,85.464,32.473,1009.610,131.400,20.800,51.000,21.617,392.27,2,-9.00,9,-9.00,0.38,17.59,214.96,23.8,260.42
AOML_Explorer,Ex0729N,197.038,16072007,0:54:49,39.893,-73.191,407.98,-9.00,1009.72,1008.70,23.23,23.37,31.050,1.856,85.178,32.474,1009.723,131.700,20.900,51.000,21.103,396.36,2,-9.00,9,-9.00,0.38,17.13,216.10,23.8,260.05
AOML_Explorer,Ex0729N,197.040,16072007,0:57:22,39.883,-73.177,407.75,-9.00,1009.58,1008.50,23.29,23.37,31.063,1.851,84.824,32.472,1009.578,131.700,21.000,50.000,22.132,395.02,2,-9.00,9,-9.00,0.38,17.84,213.74,23.84,259.82
AOML_Explorer,Ex0729N,197.042,16072007,0:59:55,39.873,-73.162,407.78,-9.00,1009.88,1008.80,23.36,23.34,31.065,1.866,84.385,32.471,1009.882,131.800,21.000,51.000,21.617,393.46,2,-9.00,9,-9.00,0.36,17.58,215.61,23.84,260.23
AOML_Explorer,Ex0729N,197.057,16072007,1:21:40,39.788,-73.039,410.64,-9.00,1010.15,1009.20,23.22,23.19,31.023,1.928,84.526,32.511,1010.150,131.700,21.300,53.000,21.617,396.30,2,-9.00,9,-9.00,0.27,17.99,217.99,23.78,259.22
AOML_Explorer,Ex0729N,197.058,16072007,1:24:13,39.778,-73.025,411.68,-9.00,1010.19,1009.50,23.21,23.21,31.016,1.911,84.251,32.511,1010.186,131.600,21.200,50.000,20.588,397.76,2,-9.00,9,-9.00,0.25,16.55,216.63,23.78,258.79
AOML_Explorer,Ex0729N,197.060,16072007,1:26:46,39.768,-73.010,412.68,-9.00,1010.03,1009.30,23.21,23.28,31.001,1.915,83.517,32.507,1010.032,131.900,21.200,52.000,21.103,399.89,2,-9.00,9,-9.00,0.25,17.40,218.00,23.78,258.38
AOML_Explorer,Ex0729N,197.062,16072007,1:29:19,39.758,-72.996,412.68,-9.00,1010.43,1009.10,23.23,23.26,31.013,1.903,83.635,32.502,1010.430,131.800,21.300,49.000,21.103,399.28,2,-9.00,9,-9.00,0.24,16.84,214.96,23.78,258.51
AOML_Explorer,Ex0729N,197.064,16072007,1:31:52,39.748,-72.981,412.24,-9.00,1010.43,1009.50,23.28,23.23,31.008,1.947,83.908,32.496,1010.433,131.400,21.300,53.000,20.588,397.56,2,-9.00,9,-9.00,0.24,17.18,219.77,23.76,258.15
AOML_Explorer,Ex0729N,197.066,16072007,1:34:25,39.738,-72.967,412.54,-9.00,1010.57,1009.30,23.26,23.24,31.010,1.938,84.184,32.490,1010.569,133.500,21.200,49.000,21.103,398.40,2,-9.00,9,-9.00,0.23,16.87,216.53,23.73,257.36
AOML_Explorer,Ex0729N,197.067,16072007,1:36:58,39.728,-72.953,412.33,-9.00,1010.43,1009.40,23.25,23.21,31.043,1.935,85.432,32.483,1010.428,134.800,21.200,49.000,21.617,397.94,2,-9.00,9,-9.00,0.24,17.32,217.00,23.72,257.61
AOML_Explorer,Ex0729N,197.069,16072007,1:39:31,39.717,-72.939,412.83,-9.00,1010.59,1009.60,23.25,23.15,31.065,1.946,84.002,32.475,1010.592,137.900,21.000,47.000,22.132,397.52,2,-9.00,9,-9.00,0.23,17.43,217.31,23.71,257.36
AOML_Explorer,Ex0729N,197.071,16072007,1:42:04,39.706,-72.928,414.46,-9.00,1010.61,1010.00,23.21,23.15,31.061,1.930,84.330,32.468,1010.607,145.200,20.800,41.000,22.647,399.73,2,-9.00,9,-9.00,0.22,16.79,215.98,23.73,257.20
AOML_Explorer,Ex0729N,197.073,16072007,1:44:37,39.694,-72.917,415.30,-9.00,1010.66,1010.10,23.18,23.23,31.087,1.935,84.244,32.462,1010.660,145.700,20.700,40.000,22.647,402.31,2,-9.00,9,-9.00,0.21,16.57,214.69,23.75,257.03
AOML_Explorer,Ex0729N,197.074,16072007,1:47:10,39.682,-72.906,415.81,-9.00,1010.85,1010.00,23.18,23.23,31.213,1.937,83.553,32.454,1010.848,145.500,20.700,41.000,22.647,402.93,2,-9.00,9,-9.00,0.18,16.76,215.90,23.76,256.05
AOML_Explorer,Ex0729N,197.076,16072007,1:49:43,39.670,-72.896,417.58,-9.00,1010.77,1009.90,23.24,23.31,31.438,1.882,83.232,32.449,1010.771,142.700,20.900,44.000,22.132,404.76,2,-9.00,9,-9.00,0.20,16.73,216.95,23.74,254.98
AOML_Explorer,Ex0729N,197.078,16072007,1:52:16,39.659,-72.883,419.49,-9.00,1010.82,1010.00,23.28,23.25,31.500,1.915,86.651,32.444,1010.822,136.200,21.000,47.000,21.617,405.04,2,-9.00,9,-9.00,0.15,16.86,215.17,23.7,254.38
AOML_Explorer,Ex0729N,197.080,16072007,1:54:49,39.648,-72.869,422.11,-9.00,1010.92,1010.00,23.32,23.30,31.286,1.910,84.038,32.439,1010.920,133.900,21.000,49.000,21.103,407.73,2,-9.00,9,-9.00,0.16,16.81,216.21,23.69,254.65
AOML_Explorer,Ex0729N,197.082,16072007,1:57:22,39.638,-72.855,424.25,-9.00,1010.87,1009.80,23.24,23.36,31.301,1.934,82.939,32.433,1010.868,133.600,21.000,51.000,20.588,412.05,2,-9.00,9,-9.00,0.16,16.74,219.01,23.66,254.44
AOML_Explorer,Ex0729N,197.083,16072007,1:59:55,39.628,-72.842,422.77,-9.00,1010.84,1009.70,23.30,23.45,31.312,1.903,82.766,32.425,1010.841,133.900,21.000,52.000,21.103,411.28,2,-9.00,9,-9.00,0.16,17.33,219.23,23.65,254.05
AOML_Explorer,Ex0729N,197.098,16072007,2:21:40,39.541,-72.722,426.17,-9.00,1011.08,1010.00,23.21,22.96,31.736,1.901,83.701,32.438,1011.076,132.600,21.200,54.000,21.103,408.01,2,-9.00,9,-9.00,0.15,17.75,220.62,23.58,255.98
AOML_Explorer,Ex0729N,197.100,16072007,2:24:13,39.531,-72.708,425.36,-9.00,1011.32,1010.30,23.08,22.80,31.817,1.910,83.674,32.436,1011.324,132.900,21.200,48.000,20.588,407.02,2,-9.00,9,-9.00,0.15,16.14,215.26,23.58,255.94
AOML_Explorer,Ex0729N,197.102,16072007,2:26:46,39.521,-72.694,424.62,-9.00,1011.31,1009.80,22.99,22.45,31.992,1.938,83.765,32.432,1011.310,131.800,21.200,50.000,20.073,401.87,2,-9.00,9,-9.00,0.18,16.14,217.62,23.57,257.20
AOML_Explorer,Ex0729N,197.104,16072007,2:29:19,39.511,-72.680,423.14,-9.00,1011.24,1010.20,22.82,22.61,31.939,1.941,84.270,32.424,1011.237,132.000,21.300,52.000,21.103,405.92,2,-9.00,9,-9.00,0.17,17.38,217.99,23.54,257.83
AOML_Explorer,Ex0729N,197.105,16072007,2:31:52,39.501,-72.665,421.00,-9.00,1011.22,1010.00,22.56,22.63,31.936,1.913,83.195,32.419,1011.219,131.700,21.300,53.000,19.559,408.90,2,-9.00,9,-9.00,0.16,16.27,221.56,23.51,258.56
AOML_Explorer,Ex0729N,197.107,16072007,2:34:25,39.491,-72.651,419.76,-9.00,1011.18,1010.00,22.64,22.66,31.950,1.913,82.750,32.411,1011.176,132.000,21.300,51.000,21.103,406.58,2,-9.00,9,-9.00,0.16,17.17,216.85,23.49,258.50
AOML_Explorer,Ex0729N,197.109,16072007,2:36:58,39.481,-72.636,418.99,-9.00,1011.27,1010.20,22.72,22.73,31.847,1.945,83.445,32.402,1011.275,132.200,21.200,52.000,20.073,405.69,2,-9.00,9,-9.00,0.16,16.43,219.65,23.47,258.23
AOML_Explorer,Ex0729N,197.111,16072007,2:39:31,39.471,-72.622,420.91,-9.00,1011.30,1010.20,22.73,22.69,31.771,1.908,83.141,32.393,1011.295,131.500,21.200,51.000,20.073,406.78,2,-9.00,9,-9.00,0.17,16.31,218.15,23.48,258.17
AOML_Explorer,Ex0729N,197.113,16072007,2:42:04,39.461,-72.608,421.15,-9.00,1011.26,1010.10,22.73,22.70,31.831,1.869,84.190,32.382,1011.256,132.100,21.300,51.000,20.073,407.20,2,-9.00,9,-9.00,0.15,16.25,218.56,23.49,258.48
AOML_Explorer,Ex0729N,197.114,16072007,2:44:37,39.451,-72.593,421.82,-9.00,1011.45,1010.30,22.75,22.73,31.748,1.914,83.508,32.371,1011.453,131.800,21.200,53.000,20.073,408.11,2,-9.00,9,-9.00,0.15,16.63,220.65,23.48,258.37
AOML_Explorer,Ex0729N,197.116,16072007,2:47:10,39.441,-72.579,422.35,-9.00,1011.50,1010.20,22.80,22.68,31.798,1.936,83.350,32.366,1011.497,132.200,21.300,51.000,20.073,406.94,2,-9.00,9,-9.00,0.15,16.22,219.13,23.44,258.53
AOML_Explorer,Ex0729N,197.118,16072007,2:49:43,39.431,-72.565,421.99,-9.00,1011.42,1010.30,22.77,22.69,31.829,1.916,83.073,32.354,1011.423,132.200,21.500,49.000,20.073,407.23,2,-9.00,9,-9.00,0.14,15.84,217.09,23.38,258.25
AOML_Explorer,Ex0729N,197.120,16072007,2:52:16,39.421,-72.550,421.37,-9.00,1011.42,1010.20,22.74,22.72,31.864,1.936,83.860,32.347,1011.422,132.800,21.400,49.000,20.588,407.58,2,-9.00,9,-9.00,0.14,16.27,215.79,23.34,258.05
AOML_Explorer,Ex0729N,197.121,16072007,2:54:49,39.411,-72.536,421.99,-9.00,1011.41,1010.30,22.74,22.76,31.891,1.912,83.610,32.341,1011.414,132.700,21.300,47.000,20.073,408.87,2,-9.00,9,-9.00,0.13,15.45,214.61,23.29,258.13
AOML_Explorer,Ex0729N,197.123,16072007,2:57:22,39.401,-72.522,423.73,-9.00,1011.51,1010.30,22.77,22.59,32.051,1.923,84.855,32.333,1011.514,134.200,21.300,45.000,20.073,407.19,2,-9.00,9,-9.00,0.12,15.16,214.31,23.24,257.78
AOML_Explorer,Ex0729N,197.125,16072007,2:59:55,39.390,-72.508,422.80,-9.00,1011.50,1010.40,22.74,22.56,32.173,1.909,83.787,32.324,1011.498,135.500,21.200,45.000,20.588,406.45,2,-9.00,9,-9.00,0.11,15.50,213.99,23.23,257.20
AOML_Explorer,Ex0729N,197.140,16072007,3:21:40,39.302,-72.394,424.67,-9.00,1011.69,1010.70,22.50,22.27,32.456,1.928,86.986,32.337,1011.694,135.300,20.800,43.000,20.588,407.56,2,-9.00,9,-9.00,0.11,15.05,210.43,23.18,257.72
AOML_Explorer,Ex0729N,197.142,16072007,3:24:13,39.291,-72.380,427.84,-9.00,1011.64,1010.70,22.60,22.24,32.455,1.936,86.251,32.334,1011.643,133.700,20.900,45.000,19.044,408.44,2,-9.00,9,-9.00,0.12,14.13,214.54,23.1,258.63
AOML_Explorer,Ex0729N,197.144,16072007,3:26:46,39.281,-72.367,428.18,-9.00,1011.69,1010.60,22.38,22.11,32.441,1.881,87.043,32.326,1011.690,134.800,20.800,47.000,20.073,410.29,2,-9.00,9,-9.00,0.12,15.32,215.08,23.09,259.10
AOML_Explorer,Ex0729N,197.145,16072007,3:29:19,39.271,-72.353,429.19,-9.00,1011.79,1010.90,22.34,22.07,32.400,1.934,87.185,32.321,1011.785,134.500,20.700,44.000,19.044,411.32,2,-9.00,9,-9.00,0.11,13.90,213.51,23,259.22
AOML_Explorer,Ex0729N,197.147,16072007,3:31:52,39.260,-72.340,428.77,-9.00,1011.73,1010.60,22.19,22.11,32.409,1.921,86.932,32.313,1011.734,134.400,20.800,44.000,18.529,414.22,2,-9.00,9,-9.00,0.12,13.42,214.64,22.97,258.79
AOML_Explorer,Ex0729N,197.149,16072007,3:34:25,39.250,-72.326,429.51,-9.00,1011.82,1010.80,22.18,22.16,32.422,1.935,86.851,32.302,1011.815,135.100,20.700,46.000,19.044,416.03,2,-9.00,9,-9.00,0.11,14.20,215.95,22.9,258.48
AOML_Explorer,Ex0729N,197.151,16072007,3:36:58,39.240,-72.313,430.34,-9.00,1011.74,1010.70,22.21,22.04,32.434,1.876,86.715,32.293,1011.737,133.400,20.900,43.000,20.073,414.34,2,-9.00,9,-9.00,0.10,14.51,209.34,22.89,258.77
AOML_Explorer,Ex0729N,197.152,16072007,3:39:31,39.230,-72.299,431.73,-9.00,1011.87,1010.80,22.21,22.06,32.437,1.931,86.662,32.285,1011.866,134.000,21.100,42.000,19.559,416.01,2,-9.00,9,-9.00,0.09,13.82,209.60,22.88,258.47
AOML_Explorer,Ex0729N,197.154,16072007,3:42:04,39.219,-72.285,432.13,-9.00,1011.76,1010.80,22.16,22.03,32.427,1.906,86.295,32.274,1011.756,133.600,20.900,45.000,19.559,416.73,2,-9.00,9,-9.00,0.10,14.39,212.61,22.87,258.68
AOML_Explorer,Ex0729N,197.156,16072007,3:44:37,39.209,-72.272,432.47,-9.00,1011.95,1010.90,22.14,22.04,32.436,1.934,86.266,32.267,1011.954,133.600,20.900,41.000,20.073,417.60,2,-9.00,9,-9.00,0.10,14.18,206.82,22.89,258.74
AOML_Explorer,Ex0729N,197.158,16072007,3:47:10,39.199,-72.258,432.18,-9.00,1011.69,1010.90,22.13,22.03,32.445,1.925,86.455,32.260,1011.689,134.200,20.800,44.000,20.073,417.28,2,-9.00,9,-9.00,0.10,14.65,210.58,22.89,258.92
AOML_Explorer,Ex0729N,197.160,16072007,3:49:43,39.189,-72.244,432.48,-9.00,1011.79,1010.90,22.13,22.00,32.447,1.949,86.387,32.254,1011.785,134.100,20.700,42.000,19.559,416.96,2,-9.00,9,-9.00,0.10,13.84,208.85,22.91,259.01
AOML_Explorer,Ex0729N,197.161,16072007,3:52:16,39.178,-72.231,433.17,-9.00,1011.99,1011.00,22.12,22.04,32.437,1.942,86.109,32.244,1011.988,134.000,20.700,49.000,20.073,418.65,2,-9.00,9,-9.00,0.11,15.52,215.55,22.95,259.53
AOML_Explorer,Ex0729N,197.163,16072007,3:54:49,39.168,-72.218,433.38,-9.00,1011.89,1010.80,22.11,22.02,32.435,1.931,86.203,32.234,1011.892,134.400,20.800,47.000,20.588,418.74,2,-9.00,9,-9.00,0.11,15.60,212.77,22.99,259.68
AOML_Explorer,Ex0729N,197.165,16072007,3:57:22,39.158,-72.204,433.40,-9.00,1011.83,1010.70,22.13,21.75,32.417,1.935,86.141,32.228,1011.827,134.600,20.700,46.000,20.073,413.77,2,-9.00,9,-9.00,0.14,14.94,212.43,23.06,261.31
AOML_Explorer,Ex0729N,197.167,16072007,3:59:55,39.148,-72.191,432.02,-9.00,1011.96,1010.80,22.11,21.75,32.249,1.970,85.869,32.224,1011.961,134.400,20.700,47.000,20.073,412.84,2,-9.00,9,-9.00,0.14,15.14,213.43,23.12,263.02
AOML_Explorer,Ex0729N,197.182,16072007,4:21:40,39.060,-72.075,422.06,-9.00,1012.26,1011.10,22.73,23.14,32.785,1.943,84.695,32.242,1012.259,134.400,21.400,47.000,19.044,415.88,2,-9.00,9,-9.00,0.11,14.20,216.74,23.43,257.21
AOML_Explorer,Ex0729N,197.183,16072007,4:24:13,39.049,-72.061,423.43,-9.00,1012.23,1011.20,22.96,23.27,32.887,1.929,84.624,32.242,1012.225,134.000,21.400,45.000,19.559,415.39,2,-9.00,9,-9.00,0.10,14.34,213.55,23.42,255.04
AOML_Explorer,Ex0729N,197.185,16072007,4:26:46,39.039,-72.048,424.70,-9.00,1012.49,1011.30,23.12,23.42,33.334,1.931,84.496,32.236,1012.493,135.800,21.400,44.000,19.044,416.48,2,-9.00,9,-9.00,0.09,13.78,215.74,23.39,252.88
AOML_Explorer,Ex0729N,197.187,16072007,4:29:19,39.028,-72.034,425.51,-9.00,1012.42,1011.20,23.25,23.37,33.591,1.957,84.517,32.233,1012.418,135.500,21.600,44.000,19.044,414.05,2,-9.00,9,-9.00,0.09,13.71,215.43,23.39,251.81
AOML_Explorer,Ex0729N,197.189,16072007,4:31:52,39.017,-72.021,425.21,-9.00,1012.32,1011.20,23.35,23.29,33.816,1.918,84.191,32.226,1012.317,136.100,21.600,44.000,19.559,410.72,2,-9.00,9,-9.00,0.10,14.11,214.77,23.4,251.74
AOML_Explorer,Ex0729N,197.191,16072007,4:34:25,39.006,-72.007,424.37,-9.00,1012.23,1011.20,23.32,23.27,33.812,1.906,84.179,32.220,1012.230,135.700,21.700,44.000,19.559,410.00,2,-9.00,9,-9.00,0.09,14.17,214.73,23.41,251.32
AOML_Explorer,Ex0729N,197.192,16072007,4:36:58,38.995,-71.993,423.04,-9.00,1012.26,1011.20,23.26,23.31,33.801,1.919,83.964,32.215,1012.261,135.400,21.600,45.000,19.559,410.28,2,-9.00,9,-9.00,0.10,14.33,215.54,23.43,251.25
AOML_Explorer,Ex0729N,197.194,16072007,4:39:31,38.984,-71.980,423.50,-9.00,1012.30,1011.30,23.26,23.23,33.759,1.956,83.532,32.207,1012.302,135.700,21.600,43.000,19.044,409.63,2,-9.00,9,-9.00,0.10,13.54,214.71,23.44,251.35
AOML_Explorer,Ex0729N,197.196,16072007,4:42:04,38.973,-71.966,423.32,-9.00,1012.29,1011.20,23.26,23.19,33.646,1.958,82.901,32.202,1012.286,135.000,21.600,43.000,19.559,408.60,2,-9.00,9,-9.00,0.11,13.99,213.27,23.44,251.52
AOML_Explorer,Ex0729N,197.198,16072007,4:44:37,38.962,-71.953,423.86,-9.00,1012.28,1011.10,23.22,23.04,33.644,1.956,83.589,32.196,1012.279,135.700,21.500,43.000,19.044,407.52,2,-9.00,9,-9.00,0.11,13.58,214.86,23.45,251.94
AOML_Explorer,Ex0729N,197.199,16072007,4:47:10,38.951,-71.939,423.49,-9.00,1012.34,1011.00,23.17,23.10,33.767,1.929,83.736,32.186,1012.343,134.900,21.600,47.000,19.044,408.97,2,-9.00,9,-9.00,0.11,14.34,218.71,23.47,251.85
AOML_Explorer,Ex0729N,197.201,16072007,4:49:43,38.941,-71.925,423.08,-9.00,1012.26,1011.00,23.09,23.04,33.611,1.966,84.143,32.181,1012.257,135.400,21.500,47.000,18.529,408.82,2,-9.00,9,-9.00,0.11,13.95,220.49,23.47,252.57
AOML_Explorer,Ex0729N,197.203,16072007,4:52:16,38.930,-71.912,422.94,-9.00,1012.40,1011.10,23.08,23.17,33.408,1.933,84.974,32.175,1012.401,136.500,21.500,45.000,18.015,411.09,2,-9.00,9,-9.00,0.11,13.17,220.78,23.48,252.98
AOML_Explorer,Ex0729N,197.205,16072007,4:54:49,38.919,-71.898,422.58,-9.00,1012.44,1011.30,23.07,23.28,33.381,1.925,84.211,32.171,1012.435,136.100,21.500,41.000,17.500,412.91,2,-9.00,9,-9.00,0.11,11.98,217.23,23.46,252.61
AOML_Explorer,Ex0729N,197.207,16072007,4:57:22,38.908,-71.885,423.43,-9.00,1012.48,1011.20,23.16,23.15,33.511,1.944,84.667,32.167,1012.477,136.000,21.600,43.000,17.500,409.95,2,-9.00,9,-9.00,0.10,12.36,219.60,23.42,251.99
AOML_Explorer,Ex0729N,197.208,16072007,4:59:55,38.897,-71.872,424.48,-9.00,1012.35,1011.30,23.26,22.97,33.363,1.945,84.327,32.165,1012.347,136.000,21.400,38.000,18.015,406.13,2,-9.00,9,-9.00,0.11,11.89,212.41,23.37,252.73
AOML_Explorer,Ex0729N,197.223,16072007,5:21:40,38.803,-71.757,422.79,-9.00,1012.30,1011.40,22.84,22.67,33.248,1.917,83.688,32.212,1012.296,136.100,21.600,42.000,19.044,406.76,2,-9.00,9,-9.00,0.10,13.52,215.38,23.53,254.93
AOML_Explorer,Ex0729N,197.225,16072007,5:24:13,38.792,-71.743,422.90,-9.00,1012.34,1011.30,22.79,22.68,33.400,1.883,83.540,32.212,1012.340,136.400,21.600,40.000,18.015,407.99,2,-9.00,9,-9.00,0.10,12.29,215.58,23.55,255.14
AOML_Explorer,Ex0729N,197.227,16072007,5:26:46,38.781,-71.730,420.65,-9.00,1012.41,1011.40,22.70,22.72,33.385,1.890,83.571,32.209,1012.409,136.200,21.600,42.000,18.529,408.08,2,-9.00,9,-9.00,0.10,13.09,216.60,23.62,255.61
AOML_Explorer,Ex0729N,197.229,16072007,5:29:19,38.770,-71.716,420.38,-9.00,1012.44,1011.50,22.72,22.80,33.383,1.916,83.210,32.207,1012.439,136.100,21.700,40.000,18.529,408.74,2,-9.00,9,-9.00,0.10,12.73,214.44,23.67,255.05
AOML_Explorer,Ex0729N,197.230,16072007,5:31:52,38.759,-71.703,421.08,-9.00,1012.52,1011.50,22.79,22.94,33.397,1.899,83.661,32.204,1012.525,135.800,21.600,38.000,18.015,410.70,2,-9.00,9,-9.00,0.10,11.95,213.21,23.7,254.41
AOML_Explorer,Ex0729N,197.232,16072007,5:34:25,38.747,-71.689,421.29,-9.00,1012.49,1011.50,22.83,22.98,33.466,1.883,83.468,32.201,1012.487,136.200,21.600,39.000,18.015,410.74,2,-9.00,9,-9.00,0.11,12.14,214.66,23.71,253.72
AOML_Explorer,Ex0729N,197.234,16072007,5:36:58,38.737,-71.676,421.64,-9.00,1012.41,1011.40,22.95,22.97,33.547,1.903,83.557,32.199,1012.407,135.700,21.600,40.000,18.529,408.88,2,-9.00,9,-9.00,0.10,12.76,214.16,23.72,253.69
AOML_Explorer,Ex0729N,197.236,16072007,5:39:31,38.726,-71.662,421.55,-9.00,1012.40,1011.50,22.99,22.93,33.624,1.919,82.930,32.192,1012.398,136.000,21.600,41.000,17.500,407.39,2,-9.00,9,-9.00,0.10,12.18,218.70,23.72,254.24
AOML_Explorer,Ex0729N,197.238,16072007,5:42:04,38.714,-71.649,421.28,-9.00,1012.33,1011.30,22.96,22.78,33.614,1.910,82.728,32.187,1012.330,135.800,21.700,39.000,18.529,405.18,2,-9.00,9,-9.00,0.10,12.60,213.40,23.77,255.30
AOML_Explorer,Ex0729N,197.239,16072007,5:44:37,38.704,-71.635,419.93,-9.00,1012.28,1011.30,22.93,22.74,33.672,1.910,82.828,32.183,1012.279,135.600,21.500,39.000,18.015,403.71,2,-9.00,9,-9.00,0.10,12.25,214.60,23.78,256.12
AOML_Explorer,Ex0729N,197.241,16072007,5:47:10,38.693,-71.622,420.02,-9.00,1012.51,1011.40,22.80,22.58,33.860,1.912,82.622,32.180,1012.509,135.700,21.600,39.000,17.500,403.32,2,-9.00,9,-9.00,0.11,11.76,216.05,23.77,256.80